Fredericksburg, Texas, United States (78624)
Lat: 30.27N, Lon: 98.87W
Wx Zone: TXZ188
Local Info
Past Weather Observations for Today

NOTE: This archive is for the closest National Weather Service station to Fredericksburg. Information may differ from the station used for current weather conditions.

Click here for Long-term Archive

Time Weather Temperature Dewpoint Humidity Pressure Winds Precip Visibility
16:35
Overcast
81°F / 27°C 73°F / 23°C 79% 29.98 in
(1015 mb)
SSE 5.8 mph
(SSE 9 kph)
- 7SM
16:15
Overcast
81°F / 27°C 73°F / 23°C 79% 30.01 in
(1016 mb)
S 6.9 mph
(S 11 kph)
- 7SM
15:55
Overcast
81°F / 27°C 73°F / 23°C 79% 30.01 in
(1016 mb)
S 4.6 mph
(S 7 kph)
- 7SM
15:35
Overcast
81°F / 27°C 73°F / 23°C 79% 30.01 in
(1016 mb)
S 5.8 mph
(S 9 kph)
- 7SM
15:15
Overcast
81°F / 27°C 73°F / 23°C 79% 30.01 in
(1016 mb)
S 5.8 mph
(S 9 kph)
- 7SM
14:55
Overcast
81°F / 27°C 72°F / 22°C 74% 30.01 in
(1016 mb)
S 8.1 mph
(S 13 kph)
- 7SM
14:35
Overcast
79°F / 26°C 72°F / 22°C 79% 30.04 in
(1017 mb)
S 8.1 mph
(S 13 kph)
- 7SM
14:15
Overcast
81°F / 27°C 72°F / 22°C 74% 30.01 in
(1016 mb)
SSE 9.2 mph
(SSE 15 kph)
- 7SM
13:55
Overcast
79°F / 26°C 72°F / 22°C 79% 30.04 in
(1017 mb)
S 5.8 mph
(S 9 kph)
- 10SM
13:35
Overcast
81°F / 27°C 72°F / 22°C 74% 30.04 in
(1017 mb)
S 9.2 mph
(S 15 kph)
- 10SM
13:15
Overcast
81°F / 27°C 72°F / 22°C 74% 30.04 in
(1017 mb)
SSE 5.8 mph
(SSE 9 kph)
- 10SM
12:55
Overcast
81°F / 27°C 72°F / 22°C 74% 30.06 in
(1018 mb)
S 6.9 mph
(S 11 kph)
- 10SM
12:35
Overcast
81°F / 27°C 72°F / 22°C 74% 30.04 in
(1017 mb)
S 6.9 mph
(S 11 kph)
- 10SM
12:15
Mostly Cloudy
81°F / 27°C 70°F / 21°C 70% 30.04 in
(1017 mb)
S 6.9 mph
(S 11 kph)
- 10SM
11:55
Overcast
79°F / 26°C 72°F / 22°C 79% 30.04 in
(1017 mb)
S 5.8 mph
(S 9 kph)
- 7SM
11:35
Overcast
79°F / 26°C 72°F / 22°C 79% 30.04 in
(1017 mb)
S 4.6 mph
(S 7 kph)
- 7SM
11:15
Overcast
77°F / 25°C 72°F / 22°C 83% 30.04 in
(1017 mb)
S 6.9 mph
(S 11 kph)
- 7SM
10:55
Overcast
77°F / 25°C 72°F / 22°C 83% 30.04 in
(1017 mb)
S 8.1 mph
(S 13 kph)
- 7SM
10:35
Overcast
77°F / 25°C 72°F / 22°C 83% 30.04 in
(1017 mb)
SSE 11.5 mph
(SSE 19 kph)
- 7SM
10:15
Overcast
Fog And Mist
77°F / 25°C 72°F / 22°C 83% 30.01 in
(1016 mb)
S 11.5 mph
(S 19 kph)
- 5SM
09:55
Overcast
Fog And Mist
75°F / 24°C 72°F / 22°C 89% 30.01 in
(1016 mb)
S 8.1 mph
(S 13 kph)
- 5SM
09:35
Overcast
Fog And Mist
75°F / 24°C 72°F / 22°C 89% 30.04 in
(1017 mb)
S 11.5 mph
(S 19 kph)
- 5SM
09:15
Overcast
Fog And Mist
75°F / 24°C 72°F / 22°C 89% 30.04 in
(1017 mb)
S 9.2 mph
(S 15 kph)
- 5SM
08:55
Overcast
75°F / 24°C 72°F / 22°C 89% 30.01 in
(1016 mb)
S 9.2 mph
(S 15 kph)
- 7SM
08:35
Overcast
75°F / 24°C 72°F / 22°C 89% 30.04 in
(1017 mb)
S 10.4 mph
(S 17 kph)
- 7SM
08:15
Overcast
75°F / 24°C 72°F / 22°C 89% 30.04 in
(1017 mb)
S 8.1 mph
(S 13 kph)
- 7SM
07:55
Overcast
75°F / 24°C 72°F / 22°C 89% 30.01 in
(1016 mb)
S 9.2 mph
(S 15 kph)
- 7SM
07:35
Overcast
73°F / 23°C 70°F / 21°C 89% 30.01 in
(1016 mb)
S 8.1 mph
(S 13 kph)
- 7SM
07:15
Overcast
73°F / 23°C 70°F / 21°C 89% 30.01 in
(1016 mb)
S 6.9 mph
(S 11 kph)
- 7SM
06:55
Overcast
73°F / 23°C 70°F / 21°C 89% 30.01 in
(1016 mb)
S 9.2 mph
(S 15 kph)
- 7SM
06:35
Overcast
73°F / 23°C 70°F / 21°C 89% 30.01 in
(1016 mb)
S 6.9 mph
(S 11 kph)
- 7SM
06:15
Mostly Cloudy
73°F / 23°C 70°F / 21°C 89% 30.01 in
(1016 mb)
S 8.1 mph
(S 13 kph)
- 7SM
05:55
Overcast
73°F / 23°C 70°F / 21°C 89% 30.01 in
(1016 mb)
S 9.2 mph
(S 15 kph)
- 7SM
05:35
Overcast
Fog And Mist
73°F / 23°C 72°F / 22°C 94% 29.98 in
(1015 mb)
S 13.8 mph
(S 22 kph)
- 5SM
05:15
Overcast
Fog And Mist
73°F / 23°C 72°F / 22°C 94% 29.98 in
(1015 mb)
S 9.2 mph
(S 15 kph)
- 4SM
04:55
Overcast
Fog And Mist
73°F / 23°C 72°F / 22°C 94% 29.98 in
(1015 mb)
S 6.9 mph
(S 11 kph)
- 3SM
04:35
Overcast
Fog And Mist
73°F / 23°C 72°F / 22°C 94% 29.98 in
(1015 mb)
S 9.2 mph
(S 15 kph)
- 4SM
04:15
Overcast
Fog And Mist
73°F / 23°C 72°F / 22°C 94% 29.98 in
(1015 mb)
S 6.9 mph
(S 11 kph)
- 4SM
03:55
Overcast
Fog And Mist
73°F / 23°C 72°F / 22°C 94% 29.98 in
(1015 mb)
S 8.1 mph
(S 13 kph)
- 2 1/2SM
03:35
Overcast
Fog And Mist
73°F / 23°C 72°F / 22°C 94% 29.98 in
(1015 mb)
S 9.2 mph
(S 15 kph)
- 3SM
03:15
Overcast
Fog And Mist
73°F / 23°C 72°F / 22°C 94% 29.98 in
(1015 mb)
S 6.9 mph
(S 11 kph)
- 3SM
02:55
Overcast
Fog And Mist
73°F / 23°C 72°F / 22°C 94% 29.98 in
(1015 mb)
S 5.8 mph
(S 9 kph)
- 4SM
02:35
Overcast
Fog And Mist
73°F / 23°C 72°F / 22°C 94% 29.98 in
(1015 mb)
S 9.2 mph
(S 15 kph)
- 5SM
02:15
Overcast
73°F / 23°C 72°F / 22°C 94% 29.98 in
(1015 mb)
S 8.1 mph
(S 13 kph)
- 7SM
01:55
Overcast
73°F / 23°C 72°F / 22°C 94% 29.98 in
(1015 mb)
S 8.1 mph
(S 13 kph)
- 7SM
01:35
Overcast
73°F / 23°C 72°F / 22°C 94% 29.98 in
(1015 mb)
S 8.1 mph
(S 13 kph)
- 7SM
01:15
Overcast
75°F / 24°C 72°F / 22°C 89% 30.01 in
(1016 mb)
SSE 5.8 mph
(SSE 9 kph)
- 7SM
00:55
Overcast
75°F / 24°C 72°F / 22°C 89% 30.01 in
(1016 mb)
SSE 5.8 mph
(SSE 9 kph)
- 7SM
00:35
Overcast
75°F / 24°C 72°F / 22°C 89% 30.01 in
(1016 mb)
S 5.8 mph
(S 9 kph)
- 7SM
00:15
Overcast
75°F / 24°C 72°F / 22°C 89% 30.01 in
(1016 mb)
S 4.6 mph
(S 7 kph)
- 7SM
Time Weather Temperature Dewpoint Humidity Pressure Winds Precip Visibility


Weather for websites

WeatherForYou.com, LLC is not responsible for any damages or problems caused by this service. Current weather conditions are obtained from the closest station including government and personal stations which may have varying degrees of accuracy. Weather forecasts are derived from the NOAA NDFD. Like all things, this site belongs to Jesus Christ... He just trusts us to maintain it. If you have any questions or comments email webmaster@weatherforyou.com

Copyright © 2016, WeatherForYou.com LLC. All rights reserved.